THOR ABLESTAR DEB, 323

Orbit data source: Space-Track

THOR ABLESTAR DEB, 323 is space debris in LEO originally from a launch on Thu, 29 Jun 1961 UTC launched from the Air Force Eastern Test Range (AFETR). Debris objects in space refer to the collection of defunct objects orbiting the Earth. Examples of debris include non-operational satellites, rocket bodies, and fragments generated from explosions, collisions, or faulty payload assembly.

Loading next visibility...
Identifier
323, 1961-015CZ
Orbit
LEO
Country
Flag of USUS
Related business
Manufacturer
Unknown
Mission
Spacecraft
Bus & Motor
Unknown
Mass
Unknown
Launch date (UTC)
1961-06-29 (65 years ago)
Launch vehicle
Unknown
Launch site
Air Force Eastern Test Range (AFETR)
Object type
Payload
Rocket body
Debris
Shape & HBR
Unknown shape, 0.1 m
Radar Cross Section
Small (<0.1 m²)

Expand to show TLE details & history
Last TLE update: 23 hours ago

TLE from 23 hours ago
0 THOR ABLESTAR DEB
1 00323U 61015CZ  26037.08119726  .00000368  00000-0  22022-3 0  9991
2 00323  66.8376  72.9966 0076817 188.6249 171.3529 14.16299329309907
Epoch: 2026-02-06T01:56Z
TLE epoch observation values (Epoch: 2026-02-06T01:56:55.443Z)
Latitude
-0.00003°
Longitude
-92.45862°
Altitude
894.817 km
Speed
7.377 km/s
True Right ascension
04h 51m 59s
True Declination
0° 00' 00"
Sunlit
Object was in daylight at epoch
Visualization orbit readout
Latitude
Unknown
Longitude
Unknown
Altitude
Unknown
Speed
Unknown
Apparent Right ascension
Unknown
Apparent Declination
Unknown
Sunlit
N/A
Visualization observer readout
Local Sidereal Time
02:52:32
Azimuth
Unknown
Elevation
Unknown
Doppler factor
Unknown
Orbital elements
Apogee altitude
891.684 km
Perigee altitude
780.846 km
Semi-major axis
7,214.402 km
Eccentricity
0.00768
Inclination
66.8376°
RAAN
72.9966°
Arg. of periapsis
188.6249°
True anomaly
171.484°
Mean anomaly
171.3529°
Eccentric anomaly
171.41857°
Mean motion
3.54195 °/min
Orbital period
101.64 mins
BSTAR
0.00022022

Documentation

Showing up to 5 results
|